Regional Weather Roundup
Issued by NWS

Home | Current Version | Previous Version | Text Only | Print | Product List | Glossary Off
Versions: 1 2 3 4 5 6 7 8 9 10 11 12 13 14 15 16 17 18 19 20 21 22 23 24 25 26 27

000
ASUS45 KBOU 250207
RWRCO

WEATHER ROUNDUP FOR COLORADO
NATIONAL WEATHER SERVICE DENVER/BOULDER CO
800 PM MDT FRI OCT 24 2014

NOTE: "FAIR" INDICATES FEW OR NO CLOUDS BELOW 12000 FEET WITH NO
SIGNIFICANT WEATHER AND/OR OBSTRUCTIONS TO VISIBILITY.

COZ001>005-013-030-031-250300-
...NORTHWEST COLORADO...

CITY           SKY/WX    TMP DP  RH WIND       PRES   REMARKS
CRAIG          CLEAR     51  28  41 SW6       30.27R
HAYDEN         CLEAR     57  23  26 CALM      30.29R
MEEKER         CLEAR     51  33  50 NE5       30.30R
MOUNT WERNER   NOT AVBL
STEAMBOAT SPGS CLEAR     57  24  28 SW5       30.31S
WALDEN         CLEAR     54  21  28 S8        30.37S
$$

COZ006>008-011-250300-
...WEST CENTRAL VALLEYS...

CITY           SKY/WX    TMP DP  RH WIND       PRES   REMARKS
GRAND JUNCTION CLEAR     53  35  50 NE3       30.22R
MONTROSE       CLEAR     54  36  50 S8        30.30R
EAGLE          CLEAR     54  28  37 E7        30.34R
RIFLE          CLEAR     53  35  50 SE13      30.26R
DELTA          CLEAR     60  34  37 E6        30.24R
NUCLA          CLEAR     59  28  31 E10       30.31S
$$

COZ017>023-064>068-250300-
...SOUTHWEST COLORADO...

CITY           SKY/WX    TMP DP  RH WIND       PRES   REMARKS
DURANGO        CLEAR     58  32  37 CALM      30.34R
CORTEZ         CLEAR     49  32  52 E7        30.30R
PAGOSA SPRINGS CLEAR     49  33  52 NE5       30.41R
TELLURIDE      PTCLDY    51  27  38 E8        30.50S
WOLF CREEK PAS CLEAR     41  27  56 SW15        N/A
$$

COZ009-010-012-014-032>034-037-058>063-250300-
...CENTRAL COLORADO...

CITY           SKY/WX    TMP DP  RH WIND       PRES   REMARKS
ASPEN          CLEAR     46  29  51 S9        30.40R
BUENA VISTA    CLEAR     51  20  30 NW9       30.40R
COPPER MTN     CLEAR     45  12  26 W14       30.64S
BERTHOUD PASS  FAIR      36  34  93 W14G20    30.67S
COTTONWOOD PAS CLEAR     54   9  16 W5        30.51S
GUNNISON       CLEAR     48  19  32 N3        30.42R
KREMMLING      CLEAR     54  14  20 SW7         N/A
LEADVILLE      CLEAR     40  19  43 NE8       30.51R
MONARCH PASS   CLEAR     41  19  42 SW15      30.74R
SALIDA         CLEAR     61  22  22 W10       30.44R
SUNLIGHT       CLEAR     45  19  36 CALM      30.58S
WILKERSON PASS NOT AVBL
$$

COZ069>075-250300-
...SAN LUIS VALLEY/SANGRE DE CRISTO MOUNTAINS...

CITY           SKY/WX    TMP DP  RH WIND       PRES   REMARKS
ALAMOSA        CLEAR     53  22  29 N6        30.36R
LA VETA PASS   CLEAR     50  14  23 S5        30.52S
SAGUACHE       CLEAR     52  27  37 N12       30.40S
$$

COZ035-036-038>040-250300-
...NORTHERN COLORADO FRONT RANGE...

CITY           SKY/WX    TMP DP  RH WIND       PRES   REMARKS
DENVER INTL AP CLEAR     58  27  30 SE10      30.19R
DMNS CITY PARK   N/A     64  31  28 E7G13     30.18S
AURORA         CLEAR     56  29  34 E9        30.22R
FRONT RANGE AP NOT AVBL
ERIE MUNI ARPT CLEAR     58  29  32 CALM      30.17S
BOULDER MUN AP CLEAR     68  21  17 S8        30.18S
CENTENNIAL     CLEAR     61  27  27 S6        30.22R
BROOMFIELD     CLEAR     72  21  15 N5        30.21R
FORT COLLINS   CLEAR     63  28  27 CALM      30.18R
LONGMONT       CLEAR     63  26  25 S5        30.19R
$$

COZ041-046-047-076>085-087-088-250300-
...PIKES PEAK/PALMER DIVIDE AND SOUTHERN FOOTHILLS...

CITY           SKY/WX    TMP DP  RH WIND       PRES   REMARKS
COLO. SPRINGS  CLEAR     55  27  34 N5        30.26R
A. F. ACADEMY  CLEAR     56  26  31 NW7       30.28R
ELLICOTT       NOT AVBL
FALCON         CLEAR     56  22  27 S3        30.31R
FORT CARSON    CLEAR     64  23  21 W7        30.23R
LIMON          CLEAR     46  32  58 N7        30.20R
MONUMENT HILL  CLEAR     50  23  34 SE9       30.29S
TRINIDAD       CLEAR     59  35  40 W7        30.21R
$$

COZ042>045-048>051-090-091-250300-
...NORTHEAST COLORADO...

CITY           SKY/WX    TMP DP  RH WIND       PRES   REMARKS
GREELEY ARPT   CLEAR     54  27  35 SW5       30.15R
AKRON          CLEAR     65  22  19 S5        30.14R
BURLINGTON     CLEAR     63  26  24 SE7       30.13R
WRAY           CLEAR     65  28  24 E5        30.09R
STERLING       CLEAR     61  34  36 CALM      30.10R
HOLYOKE        CLEAR     55  39  54 CALM      30.09R
FORT MORGAN    CLEAR     66  22  19 CALM      30.14R
$$

COZ086-089-092>099-250300-
...SOUTHEAST COLORADO...

CITY           SKY/WX    TMP DP  RH WIND       PRES   REMARKS
PUEBLO         CLEAR     64  23  21 CALM      30.14R
LA JUNTA       CLEAR     67  34  29 E7        30.11R
LAMAR          CLEAR     60  35  39 CALM      30.08R
SPRINGFIELD      N/A     59  38  45 SW7       30.14R
$$



USA.gov is the U.S. government's official web portal to all federal, state and local government web resources and services.